Time,TemperatureF,DewpointF,PressureIn,WindDirection,WindDirectionDegrees,WindSpeedMPH,WindSpeedGustMPH,Humidity,HourlyPrecipIn,Conditions,Clouds,dailyrainin,SoftwareType,DateUTC
2017-04-26 00:03:00,35.5,20.5,30.01,ENE,60,8.0,8.0,54,0.00,,---,0.00,VWS V15.00,2017-04-26 05:03:00,
2017-04-26 00:08:00,35.4,20.4,30.02,ENE,57,7.0,18.0,54,0.00,,---,0.00,VWS V15.00,2017-04-26 05:08:00,
2017-04-26 00:13:00,35.3,20.3,30.01,ENE,61,11.0,18.0,54,0.00,,---,0.00,VWS V15.00,2017-04-26 05:13:00,
2017-04-26 00:18:00,35.1,20.1,30.02,East,82,11.0,23.0,54,0.00,,---,0.00,VWS V15.00,2017-04-26 05:18:00,
2017-04-26 00:23:00,35.1,20.6,30.02,East,92,11.0,23.0,55,0.00,,---,0.00,VWS V15.00,2017-04-26 05:23:00,
2017-04-26 00:28:00,35.0,20.5,30.01,East,86,14.0,23.0,55,0.00,,---,0.00,VWS V15.00,2017-04-26 05:28:00,
2017-04-26 00:33:00,34.9,20.4,30.02,East,100,14.0,14.0,55,0.00,,---,0.00,VWS V15.00,2017-04-26 05:33:00,
2017-04-26 00:38:00,34.8,20.3,30.01,NE,47,20.0,26.0,55,0.00,,---,0.00,VWS V15.00,2017-04-26 05:38:00,
2017-04-26 00:43:00,34.7,20.2,30.01,East,101,18.0,26.0,55,0.00,,---,0.00,VWS V15.00,2017-04-26 05:43:00,
2017-04-26 00:48:00,34.7,20.2,30.02,East,97,6.0,26.0,55,0.00,,---,0.00,VWS V15.00,2017-04-26 05:48:00,
2017-04-26 00:53:00,34.5,20.4,30.02,ENE,75,12.0,26.0,56,0.00,,---,0.00,VWS V15.00,2017-04-26 05:53:00,
2017-04-26 00:58:00,34.3,20.7,30.02,ENE,71,5.0,26.0,57,0.00,,---,0.00,VWS V15.00,2017-04-26 05:58:00,
2017-04-26 01:03:00,34.1,20.5,30.02,ENE,69,11.0,13.0,57,0.00,,---,0.00,VWS V15.00,2017-04-26 06:03:00,
2017-04-26 01:08:00,34.0,20.8,30.01,East,89,11.0,15.0,58,0.00,,---,0.00,VWS V15.00,2017-04-26 06:08:00,
2017-04-26 01:13:00,33.8,20.6,30.02,ENE,68,5.0,16.0,58,0.00,,---,0.00,VWS V15.00,2017-04-26 06:13:00,
2017-04-26 01:18:00,33.7,20.9,30.01,NE,55,8.0,21.0,59,0.00,,---,0.00,VWS V15.00,2017-04-26 06:18:00,
2017-04-26 01:23:00,33.6,20.8,30.01,NE,52,9.0,21.0,59,0.00,,---,0.00,VWS V15.00,2017-04-26 06:23:00,
2017-04-26 01:28:00,33.4,21.0,30.01,NE,49,9.0,21.0,60,0.00,,---,0.00,VWS V15.00,2017-04-26 06:28:00,
2017-04-26 01:33:00,33.3,20.9,30.01,NE,51,6.0,15.0,60,0.00,,---,0.00,VWS V15.00,2017-04-26 06:33:00,
2017-04-26 01:38:00,33.2,20.8,30.01,ENE,64,19.0,19.0,60,0.00,,---,0.00,VWS V15.00,2017-04-26 06:38:00,
2017-04-26 01:43:00,33.2,20.8,30.01,NE,54,11.0,20.0,60,0.00,,---,0.00,VWS V15.00,2017-04-26 06:43:00,
2017-04-26 01:48:00,33.1,20.7,30.01,NE,53,10.0,20.0,60,0.00,,---,0.00,VWS V15.00,2017-04-26 06:48:00,
2017-04-26 01:53:00,33.1,20.7,30.01,NE,49,8.0,20.0,60,0.00,,---,0.00,VWS V15.00,2017-04-26 06:53:00,
2017-04-26 01:58:00,33.0,20.6,30.00,NE,50,12.0,24.0,60,0.00,,---,0.00,VWS V15.00,2017-04-26 06:58:00,
2017-04-26 02:03:00,33.0,20.6,30.00,North,360,14.0,18.0,60,0.00,,---,0.00,VWS V15.00,2017-04-26 07:03:00,
2017-04-26 02:08:00,33.0,20.2,30.00,ENE,78,15.0,25.0,59,0.00,,---,0.00,VWS V15.00,2017-04-26 07:08:00,
2017-04-26 02:13:00,33.1,20.4,30.00,ENE,61,15.0,29.0,59,0.00,,---,0.00,VWS V15.00,2017-04-26 07:13:00,
2017-04-26 02:18:00,33.0,20.2,30.00,NE,50,20.0,29.0,59,0.00,,---,0.00,VWS V15.00,2017-04-26 07:18:00,
2017-04-26 02:23:00,32.9,20.2,30.00,ENE,65,14.0,29.0,59,0.00,,---,0.00,VWS V15.00,2017-04-26 07:23:00,
2017-04-26 02:28:00,32.8,20.1,29.99,NE,42,17.0,29.0,59,0.00,,---,0.00,VWS V15.00,2017-04-26 07:28:00,
2017-04-26 02:33:00,32.7,20.0,29.99,NNE,24,16.0,18.0,59,0.00,,---,0.00,VWS V15.00,2017-04-26 07:33:00,
2017-04-26 02:38:00,32.5,19.8,29.99,ENE,66,9.0,25.0,59,0.00,,---,0.00,VWS V15.00,2017-04-26 07:38:00,
2017-04-26 02:43:00,32.5,19.8,29.99,NE,46,11.0,25.0,59,0.00,,---,0.00,VWS V15.00,2017-04-26 07:43:00,
2017-04-26 02:48:00,32.4,19.7,29.98,NE,35,20.0,25.0,59,0.00,,---,0.00,VWS V15.00,2017-04-26 07:48:00,
2017-04-26 02:53:00,32.4,19.3,29.98,NE,51,16.0,30.0,58,0.00,,---,0.00,VWS V15.00,2017-04-26 07:53:00,
2017-04-26 02:58:00,32.3,19.2,29.98,ENE,69,14.0,30.0,58,0.00,,---,0.00,VWS V15.00,2017-04-26 07:58:00,
2017-04-26 03:03:00,32.3,19.6,29.98,NE,54,8.0,14.0,59,0.00,,---,0.00,VWS V15.00,2017-04-26 08:03:00,
2017-04-26 03:08:00,32.2,19.5,29.98,NNE,24,10.0,22.0,59,0.00,,---,0.00,VWS V15.00,2017-04-26 08:08:00,
2017-04-26 03:13:00,32.0,19.3,29.97,NNE,30,12.0,34.0,59,0.00,,---,0.00,VWS V15.00,2017-04-26 08:13:00,
2017-04-26 03:18:00,31.9,18.8,29.97,NNE,26,22.0,36.0,58,0.00,,---,0.00,VWS V15.00,2017-04-26 08:18:00,
2017-04-26 03:23:00,31.9,18.8,29.97,NE,51,22.0,36.0,58,0.00,,---,0.00,VWS V15.00,2017-04-26 08:23:00,
2017-04-26 03:28:00,31.9,18.8,29.98,NNE,33,15.0,36.0,58,0.00,,---,0.00,VWS V15.00,2017-04-26 08:28:00,
2017-04-26 03:33:00,31.8,18.7,29.97,NE,40,17.0,23.0,58,0.00,,---,0.00,VWS V15.00,2017-04-26 08:33:00,
2017-04-26 03:38:00,31.7,18.6,29.98,NE,49,10.0,24.0,58,0.00,,---,0.00,VWS V15.00,2017-04-26 08:38:00,
2017-04-26 03:43:00,31.6,18.5,29.98,NNE,32,12.0,24.0,58,0.00,,---,0.00,VWS V15.00,2017-04-26 08:43:00,
2017-04-26 03:48:00,31.5,18.8,29.97,NE,42,14.0,24.0,59,0.00,,---,0.00,VWS V15.00,2017-04-26 08:48:00,
2017-04-26 03:53:00,31.4,18.7,29.98,NE,48,18.0,33.0,59,0.00,,---,0.00,VWS V15.00,2017-04-26 08:53:00,
2017-04-26 03:58:00,31.4,18.7,29.97,ENE,71,11.0,33.0,59,0.00,,---,0.00,VWS V15.00,2017-04-26 08:58:00,
2017-04-26 04:03:00,31.3,18.6,29.97,NE,34,14.0,21.0,59,0.00,,---,0.00,VWS V15.00,2017-04-26 09:03:00,
2017-04-26 04:08:00,31.2,18.5,29.97,NE,42,10.0,21.0,59,0.00,,---,0.00,VWS V15.00,2017-04-26 09:08:00,
2017-04-26 04:13:00,31.1,18.5,29.98,NE,38,10.0,21.0,59,0.00,,---,0.00,VWS V15.00,2017-04-26 09:13:00,
2017-04-26 04:18:00,31.0,18.4,29.98,NE,36,10.0,21.0,59,0.00,,---,0.00,VWS V15.00,2017-04-26 09:18:00,
2017-04-26 04:23:00,31.0,18.8,29.97,NE,37,10.0,30.0,60,0.00,,---,0.00,VWS V15.00,2017-04-26 09:23:00,
2017-04-26 04:28:00,30.9,18.7,29.98,NE,53,8.0,30.0,60,0.00,,---,0.00,VWS V15.00,2017-04-26 09:28:00,
2017-04-26 04:33:00,30.7,18.5,29.98,NE,54,9.0,16.0,60,0.00,,---,0.00,VWS V15.00,2017-04-26 09:33:00,
2017-04-26 04:38:00,30.7,18.5,29.98,NE,53,14.0,20.0,60,0.00,,---,0.00,VWS V15.00,2017-04-26 09:38:00,
2017-04-26 04:43:00,30.6,18.8,29.97,NE,46,8.0,20.0,61,0.00,,---,0.00,VWS V15.00,2017-04-26 09:43:00,
2017-04-26 04:48:00,30.5,18.7,29.97,ENE,69,16.0,25.0,61,0.00,,---,0.00,VWS V15.00,2017-04-26 09:48:00,
2017-04-26 04:53:00,30.5,18.7,29.98,ENE,59,13.0,27.0,61,0.00,,---,0.00,VWS V15.00,2017-04-26 09:53:00,
2017-04-26 04:58:00,30.4,18.6,29.97,NE,55,14.0,27.0,61,0.00,,---,0.00,VWS V15.00,2017-04-26 09:58:00,
2017-04-26 05:03:00,30.3,18.5,29.98,NE,40,11.0,12.0,61,0.00,,---,0.00,VWS V15.00,2017-04-26 10:03:00,
2017-04-26 05:08:00,30.2,18.4,29.98,NNE,27,5.0,23.0,61,0.00,,---,0.00,VWS V15.00,2017-04-26 10:08:00,
2017-04-26 05:13:00,30.1,18.3,29.98,NE,34,6.0,23.0,61,0.00,,---,0.00,VWS V15.00,2017-04-26 10:13:00,
2017-04-26 05:18:00,30.1,18.3,29.98,NE,39,9.0,23.0,61,0.00,,---,0.00,VWS V15.00,2017-04-26 10:18:00,
2017-04-26 05:19:00,30.0,18.2,29.98,NE,42,15.0,23.0,61,0.00,,---,0.00,VWS V15.00,2017-04-26 10:19:00,
2017-04-26 05:24:00,30.0,18.2,29.98,NE,44,6.0,25.0,61,0.00,,---,0.00,VWS V15.00,2017-04-26 10:24:00,
2017-04-26 05:29:00,30.0,18.2,29.98,NE,44,15.0,25.0,61,0.00,,---,0.00,VWS V15.00,2017-04-26 10:29:00,
2017-04-26 05:34:00,29.9,17.7,29.97,NE,46,18.0,21.0,60,0.00,,---,0.00,VWS V15.00,2017-04-26 10:34:00,
2017-04-26 05:39:00,29.8,17.6,29.97,NNE,24,11.0,27.0,60,0.00,,---,0.00,VWS V15.00,2017-04-26 10:39:00,
2017-04-26 05:44:00,29.8,17.6,29.98,NE,52,20.0,27.0,60,0.00,,---,0.00,VWS V15.00,2017-04-26 10:44:00,